CAPE
1118 1098 912 1069 931 661 476 454 424 296 344 380 366 279 277 289 276 333 526 542 534 512 598 702 842 906 834 861 883 1021 994 1160 1121 1094 1097 1066 1017 960 972 1005 1006 928 747 656 612 639 698 964 963 524 329 289 857 611 708 849 698 1035 744 720 553 306 628 629 521 589 566 430 377 376 394 698 1416 2037 2347 1794 1503 2670 2411 2193 2360 2500 2479 2511 2833
1220 1121 1033 888 666 506 373 269 188 203 189 216 251 248 220 195 192 399 374 329 478 566 743 810 904 1021 1049 958 1038 1220 1213 1187 1166 1212 1241 1250 1146 1017 966 994 979 919 824 725 673 670 644 526 482 566 618 263 427 526 533 973 904 968 785 226 510 463 629 438 764 746 578 484 500 720 540 513 1444 1805 1895 2058 1944 1724 2500 2124 1906 2120 2314 2853 2826
956 1194 1088 840 616 487 432 258 187 196 205 112 66 36 56 70 120 189 255 210 301 476 583 738 956 1181 1260 1308 1320 1319 1068 930 1060 1156 1265 1316 1294 1200 1016 981 920 782 685 762 819 749 666 519 350 376 535 450 258 262 465 985 609 584 929 1019 1218 1001 1037 1508 912 757 508 501 468 562 657 797 1054 1258 1614 1910 2059 2298 2295 2934 2640 1857 2438 2891 2517
366 937 1111 743 448 394 392 300 213 77 0 0 2 10 0 17 31 87 113 127 221 404 621 865 1022 1167 1204 1382 1532 1471 1122 860 844 931 1118 1266 1278 1110 901 853 801 637 579 579 608 558 564 546 495 523 418 530 406 548 689 984 1132 976 923 1035 746 580 371 974 908 986 826 467 483 519 547 776 1398 1390 1491 1575 1847 1884 2240 2284 2912 3043 2398 2350 2454
378 489 644 320 222 378 390 298 102 42 1 0 0 0 0 0 0 17 80 182 260 333 468 681 968 1146 1176 1330 1444 1522 1260 1030 1053 1186 1256 1350 1254 941 788 708 577 400 451 619 420 584 578 444 304 216 182 299 482 258 634 1013 1166 1080 359 362 198 151 477 428 381 422 606 497 429 521 636 770 1099 1511 1628 1654 1585 1846 2139 2186 2426 2614 1906 1398 1569
262 350 211 55 190 322 392 238 79 11 0 0 0 0 0 2 13 2 0 0 14 62 238 470 880 1072 1304 1280 1479 1633 1549 1459 1416 1341 1389 1403 1194 828 689 644 301 264 364 463 446 452 326 296 268 203 57 46 339 211 312 706 1032 1023 592 396 273 269 345 610 493 852 846 738 573 380 434 742 1234 1359 1686 1633 1515 1404 1500 1854 2155 2256 2114 1966 1722
820 545 172 1 106 322 237 108 34 0 0 3 5 0 0 0 1 3 2 2 5 70 263 553 966 1460 1608 1622 1492 1521 1562 1401 1354 1456 1606 1376 1037 910 844 686 338 395 417 410 408 437 268 179 169 164 97 60 94 350 53 198 832 1013 765 405 394 221 175 120 374 340 387 659 585 509 442 518 968 1366 1624 1645 1637 1538 1346 1397 1604 1593 2286 2137 2048
922 672 352 199 256 344 206 40 31 60 56 68 66 36 20 20 31 54 54 27 5 38 162 459 588 736 833 1008 1183 1415 1829 1903 1624 1543 1630 1358 1024 885 884 666 522 468 413 376 306 246 163 54 10 10 14 16 28 52 221 296 962 1154 503 268 540 131 236 519 926 620 601 758 672 498 394 440 880 1007 1260 1554 1615 1600 1473 1388 1241 1506 1647 2006 2065
1054 616 410 478 488 388 205 72 72 100 72 90 57 53 41 23 24 38 38 66 86 250 401 340 481 618 842 1184 1464 1556 1950 2066 1842 1482 1154 944 1018 881 822 552 451 368 438 465 264 121 38 4 4 12 10 4 1 0 1 1 31 235 933 1032 556 268 240 482 741 941 857 998 792 457 426 526 473 880 1064 1082 1054 1427 1155 1073 1275 1296 1387 1049 1872
1201 779 458 415 388 267 192 186 211 121 84 72 71 44 12 6 2 3 10 33 101 218 417 578 568 513 710 1118 1400 1596 1892 2114 1667 1023 764 747 724 844 830 717 478 424 545 460 96 9 6 2 2 10 24 2 32 60 9 0 0 0 152 342 480 623 1232 1153 884 444 606 276 217 272 349 344 317 441 718 1025 1144 1223 795 1266 1355 1328 1669 1132 2085
1289 814 560 326 204 204 218 260 200 131 132 77 87 104 38 3 0 12 110 314 364 398 438 470 530 606 893 1077 1149 1201 1431 1912 1574 913 744 418 601 892 846 784 666 642 540 153 67 19 11 6 12 11 14 55 181 146 13 44 21 2 0 0 22 50 352 1250 1098 1006 839 554 118 261 244 314 305 258 524 604 770 975 1234 1359 1421 1509 1332 1224 1557
1142 830 486 326 233 248 295 262 242 170 162 129 151 98 30 2 8 55 132 218 234 217 342 454 634 908 1100 1072 998 1016 1055 1345 1426 1036 792 552 270 819 846 907 793 667 425 109 80 39 50 26 36 36 27 19 75 29 168 61 49 7 0 0 0 10 12 74 380 329 320 234 344 249 266 299 324 325 260 414 710 964 1152 1356 1488 1365 1184 1280 1467
946 764 536 316 240 293 388 393 304 228 201 224 236 119 39 14 23 41 79 150 236 372 376 458 710 1002 953 934 882 833 830 1242 1431 1218 886 537 150 211 918 1011 876 747 509 226 140 94 83 48 31 24 2 2 16 19 28 52 141 106 4 4 0 0 0 0 5 118 686 1056 828 536 394 300 348 380 354 402 612 986 1262 1221 1294 1530 1267 1250 1540
828 844 719 484 379 368 482 522 415 326 292 322 276 150 42 22 31 62 150 255 315 390 465 504 605 784 692 683 797 904 742 1004 1353 1351 895 494 202 369 988 1058 955 786 600 274 187 124 114 95 82 52 46 24 8 2 4 1 0 1 3 5 3 0 0 0 0 0 1 203 354 494 292 394 445 496 523 555 605 893 1188 1269 1211 1333 1299 1273 1088
943 932 821 706 620 562 612 662 531 467 426 389 274 161 49 59 72 112 172 218 271 339 371 483 594 673 645 576 574 557 661 735 1124 1194 880 497 371 506 981 1117 852 645 618 473 314 208 157 138 118 100 56 39 4 0 0 0 0 1 3 3 6 11 226 115 28 2 6 33 204 291 414 651 421 686 648 657 884 1020 1079 1192 1266 867 1226 1180 1212
910 1021 944 882 802 808 803 749 684 679 707 579 331 144 89 78 130 244 364 292 259 239 236 263 319 380 445 514 591 648 650 666 976 1023 819 488 274 718 1108 1098 1025 868 756 533 433 320 292 249 176 126 79 61 38 6 0 1 0 3 6 6 8 9 80 133 30 4 23 150 202 241 214 158 54 543 705 779 919 903 553 606 540 732 991 887 1059
894 962 1026 976 912 857 816 822 922 853 789 558 328 120 84 98 111 226 403 320 184 132 173 216 332 411 483 574 757 973 916 786 934 1046 886 551 73 1001 1266 1234 1242 1168 772 597 477 406 382 323 212 216 144 100 64 45 0 0 1 4 5 6 5 11 59 264 173 0 0 0 0 0 0 0 0 0 18 95 146 552 936 681 234 152 381 856 534
896 1014 1228 1188 1066 916 902 966 1014 968 858 602 393 156 72 89 127 341 466 380 257 204 248 358 450 506 500 668 723 748 482 392 650 931 883 694 462 1088 1203 1204 1174 1152 944 745 636 574 475 309 248 204 202 138 116 87 28 0 2 2 5 8 2 4 6 67 219 269 0 0 0 0 0 0 0 0 31 10 45 49 424 250 220 254 316 242 490
1009 1156 1461 1308 1161 1038 932 1026 1058 978 840 577 378 255 194 246 233 354 476 397 364 443 337 333 438 481 475 503 426 707 884 602 634 824 979 814 499 1187 1426 1339 1039 1101 1302 735 777 726 653 494 316 246 199 196 157 118 74 17 3 1 5 8 4 3 3 5 42 609 207 13 0 0 0 0 0 38 78 0 88 45 347 252 353 464 453 460 520
1330 1256 1222 1212 1206 1171 1010 1044 1191 1074 861 683 534 468 486 392 303 258 250 199 248 327 358 410 486 479 455 553 648 719 806 776 544 960 992 871 588 618 957 1027 1020 926 1119 902 609 665 608 685 421 241 204 179 156 128 107 60 11 2 7 13 5 2 2 2 3 7 90 386 146 36 26 43 70 108 218 226 20 204 128 238 312 144 348 214 314
1425 1665 1786 1300 1066 1083 979 991 1092 1044 917 756 679 618 506 320 315 372 252 229 321 418 538 594 596 624 525 604 772 792 831 700 753 943 821 484 329 128 721 930 832 897 736 594 542 541 897 629 652 367 246 176 122 85 118 89 34 5 11 20 13 4 1 1 8 0 34 98 228 152 83 27 45 132 157 321 186 164 183 116 124 40 102 342 339
2104 2340 2158 1497 1134 937 855 822 1037 1036 990 1067 1157 1046 762 516 359 384 270 313 480 601 657 719 754 716 632 637 805 983 1224 1061 749 1297 672 0 0 0 181 602 420 236 295 464 517 590 658 672 651 430 237 152 64 74 121 101 62 15 7 16 27 13 1 14 24 87 218 10 384 398 291 140 120 150 144 548 433 72 100 149 88 74 171 498 528
2443 2364 2124 1526 1290 1110 1068 1180 1207 1059 1025 1170 1292 1091 827 630 648 636 760 830 732 649 696 746 758 725 707 672 688 761 1192 1611 1131 810 54 0 0 0 0 0 0 1 218 429 498 525 630 676 568 286 139 70 80 72 131 106 73 40 24 6 24 23 4 19 19 19 76 271 728 560 184 208 233 343 431 167 82 154 152 134 214 158 481 1026 1162
2458 2278 1966 1632 1337 1192 1083 1142 1152 1194 1276 1496 1430 1203 832 556 540 707 833 723 618 676 762 770 833 776 807 671 753 790 1026 1290 1239 940 391 0 0 0 0 0 0 0 32 127 373 539 610 527 334 0 0 55 74 102 116 99 96 74 54 16 12 23 16 14 18 16 62 224 311 521 262 232 283 511 436 244 185 544 459 344 319 214 295 719 1020
2270 2050 1762 1500 1248 1168 1120 1148 1056 987 1146 1391 1444 1023 665 517 584 683 818 686 712 808 853 709 840 829 738 725 697 680 818 1088 1326 1301 351 0 0 0 0 0 0 0 14 164 326 381 266 1 0 0 0 8 90 123 159 134 116 114 92 72 14 4 15 12 17 18 14 8 82 196 168 121 271 193 86 335 264 540 855 512 398 454 656 1058 1361
2062 1856 1616 1317 1252 1205 1199 1222 938 819 909 937 1008 872 575 496 526 719 762 701 787 851 892 714 770 762 686 657 586 597 708 1166 1299 654 94 8 0 0 0 0 0 0 0 20 0 0 0 0 0 144 235 269 308 337 313 259 168 164 144 133 107 13 0 18 13 18 14 12 8 10 307 338 574 212 384 717 910 866 799 643 637 757 972 1012 628
1897 1605 1465 1213 1196 1209 1237 909 502 565 1108 1073 838 717 601 474 408 538 619 641 706 699 658 740 800 660 606 511 566 536 679 842 595 141 4 0 0 0 0 31 2 1 99 194 122 113 50 55 333 355 292 286 298 325 306 324 311 308 275 254 218 127 33 12 26 22 11 14 10 16 26 235 372 1067 1094 1119 1089 900 898 913 502 807 881 349 342
1494 1356 1139 1049 1066 1173 1213 908 782 542 636 884 572 516 484 394 470 808 836 891 845 696 791 894 726 555 422 434 456 400 497 504 73 0 0 0 0 0 0 0 2 14 1 11 0 0 2 265 653 1022 1309 550 532 536 518 545 500 378 307 267 247 209 134 84 29 18 10 6 2 1 33 68 68 123 516 126 373 774 768 633 472 444 396 527 466
1076 1035 1234 1258 1065 979 765 798 995 840 395 682 873 881 654 1598 1242 915 470 24 134 480 724 572 434 211 255 400 214 254 170 16 0 0 0 0 0 0 0 0 0 0 0 0 0 0 177 142 215 216 300 280 418 472 454 462 436 285 304 265 292 244 163 113 69 58 57 28 9 5 2 4 0 6 62 183 352 337 422 766 810 530 229 184 188
1257 1004 890 867 698 559 589 488 577 658 539 648 854 10 0 158 518 606 145 0 0 0 0 54 0 10 115 86 0 0 0 0 0 0 0 0 0 0 0 0 0 0 0 0 2 2 296 162 167 222 234 233 268 299 323 474 446 378 377 194 266 244 186 169 143 96 62 63 49 16 6 3 0 0 12 88 145 181 220 225 201 234 287 142 179
915 618 544 647 544 537 466 274 236 691 550 826 743 291 32 0 0 0 0 0 0 0 0 0 0 0 0 34 0 0 0 0 0 0 0 0 0 0 0 0 0 0 0 0 592 509 103 120 70 66 32 28 12 21 100 143 178 324 290 195 225 193 184 219 198 159 113 88 69 42 10 0 0 0 1 6 30 132 257 162 217 164 144 123 88
989 686 574 822 828 356 333 339 430 417 894 766 1237 582 270 8 0 0 0 0 0 0 0 0 0 0 0 0 0 0 0 0 0 0 0 0 0 0 0 0 0 0 0 0 406 106 34 1 0 0 0 0 0 0 22 54 26 17 50 69 71 102 104 126 158 198 207 193 167 120 103 46 8 6 10 9 1 13 25 53 58 70 27 79 111
668 692 876 788 713 887 583 556 682 618 744 856 814 822 550 115 8 0 0 2 0 0 0 0 0 0 0 0 0 0 0 0 0 0 0 0 0 0 0 0 0 0 0 1 5 0 0 0 0 0 0 0 0 0 31 44 48 40 42 19 6 8 10 30 109 176 227 178 204 148 158 132 109 75 22 21 38 32 68 54 34 24 10 9 31
911 852 792 763 996 1228 1161 966 950 1116 1072 1134 1096 1160 929 479 151 0 1 2 0 0 0 0 0 0 0 0 0 0 0 0 0 0 0 0 0 0 0 0 0 0 0 0 0 0 2 2 0 0 0 0 0 0 0 11 24 38 24 21 39 72 78 82 9 57 77 137 136 174 92 108 117 121 111 56 44 55 63 85 70 65 32 26 18
802 752 450 397 582 1006 1170 1112 1029 1012 1036 1281 1288 770 984 671 482 241 65 43 14 2 1 0 0 0 0 0 0 0 0 0 0 0 0 0 0 0 0 166 51 0 0 0 0 0 0 0 0 0 0 0 0 0 0 8 38 37 36 30 34 39 49 71 85 92 48 23 12 52 47 56 74 83 142 126 84 63 78 90 42 76 74 51 39
692 713 1040 1100 832 680 828 894 938 1089 1314 1330 1066 768 532 485 130 70 97 188 135 106 11 0 0 0 0 0 0 0 0 0 0 0 0 0 0 0 0 0 0 0 0 0 0 0 0 0 0 0 0 0 0 0 0 0 0 4 14 32 42 52 59 75 108 126 135 112 46 7 33 39 50 49 111 108 90 96 123 104 90 98 83 63 57
632 719 718 726 604 505 614 1037 1254 1243 969 808 718 644 284 249 265 323 347 277 91 26 1 6 5 1 0 2 0 0 0 0 0 0 0 0 0 0 0 0 0 0 0 0 0 0 0 0 0 0 0 0 0 0 0 0 0 0 0 0 0 0 0 0 18 30 54 106 126 112 59 10 31 50 76 69 70 88 85 90 108 98 95 46 64
652 680 888 777 1024 913 870 876 596 328 596 588 723 422 313 126 24 6 5 0 0 2 8 2 0 0 0 3 0 3 1 0 0 0 0 0 0 0 0 0 0 0 0 0 0 0 0 0 0 0 0 0 0 0 0 0 0 0 0 0 0 0 0 0 0 0 0 0 27 66 73 80 62 4 24 46 54 78 110 98 127 164 134 148 144
673 223 0 0 239 885 967 790 682 710 671 544 436 320 94 2 3 2 0 0 1 3 1 2 0 1 2 2 4 3 4 7 4 2 2 1 0 0 0 0 0 0 0 0 0 0 0 0 0 0 0 0 0 0 0 0 0 0 0 0 0 0 0 0 0 0 0 0 0 0 11 20 33 40 48 44 18 41 68 149 192 172 177 207 235
514 693 166 61 479 400 597 545 562 542 468 339 146 68 7 29 4 1 1 4 3 6 1 0 0 2 2 2 1 1 6 5 3 2 2 2 2 0 0 0 0 0 0 0 0 0 0 0 0 0 0 0 0 0 0 0 0 0 0 0 0 0 0 0 0 0 0 0 0 0 0 0 0 17 26 4 6 10 27 58 94 106 166 151 194
580 462 198 170 255 134 100 128 152 282 257 148 101 63 11 6 7 8 2 1 1 1 1 0 2 4 0 0 0 0 5 6 4 3 2 2 2 2 2 1 0 0 0 0 0 0 0 0 0 0 0 0 0 0 0 0 0 0 0 0 0 0 0 0 0 0 0 0 0 0 0 2 2 1 10 14 14 2 51 18 80 98 84 78 70
488 326 64 52 8 21 8 8 3 6 3 6 1 6 6 8 6 3 8 2 0 0 0 3 5 1 0 0 0 0 2 2 2 2 0 0 3 0 0 0 0 0 0 0 0 0 0 0 0 0 0 0 0 0 0 0 0 0 0 0 0 0 0 0 0 0 0 0 0 0 0 0 1 1 2 1 0 0 0 46 71 66 78 75 59
160 70 6 5 4 3 14 4 4 6 5 5 3 6 2 5 6 3 1 0 1 0 1 5 6 2 1 2 2 0 5 2 2 2 1 1 2 0 0 0 1 0 0 0 0 0 0 0 0 0 0 0 0 0 0 0 0 0 0 0 0 0 0 0 0 0 0 0 0 0 0 0 0 0 0 0 2 1 1 2 15 13 1 2 69
23 6 6 9 8 5 2 1 2 1 4 2 0 0 2 2 5 5 1 1 0 2 1 3 5 6 6 0 2 2 2 1 2 2 1 0 0 0 0 0 2 2 0 0 0 0 0 0 0 0 0 0 0 0 0 0 0 0 0 0 0 0 0 0 0 0 0 0 0 0 0 0 0 0 0 0 0 0 0 1 2 2 1 0 30
12 6 4 1 3 2 5 3 0 0 0 0 2 0 0 0 0 0 0 1 2 1 0 2 4 6 9 8 8 8 6 2 3 4 1 1 0 1 0 0 2 1 0 0 0 0 0 0 0 0 0 0 0 0 0 0 0 0 0 0 0 0 0 0 0 0 0 0 0 0 0 0 0 0 0 0 0 0 0 0 0 0 2 3 7
4 10 10 6 2 2 2 0 0 0 0 0 0 1 0 0 0 0 0 1 3 1 0 0 0 3 7 10 9 7 6 5 3 2 3 2 0 0 0 0 0 0 0 0 0 0 0 0 0 0 0 0 0 0 0 0 0 0 0 0 0 0 0 0 0 0 0 1 1 0 0 0 0 0 0 0 0 0 0 0 0 0 0 0 0
6 7 9 7 5 3 2 0 0 0 0 0 0 0 0 0 0 0 0 0 0 0 0 0 0 0 1 2 1 1 7 6 6 3 4 4 2 0 0 0 0 0 0 0 0 0 0 0 0 0 0 0 0 0 0 0 0 0 0 0 0 0 0 0 0 0 0 1 1 0 0 0 0 0 1 0 0 0 0 0 0 0 0 0 0
8 7 8 10 10 8 4 0 0 0 0 0 0 0 0 0 0 0 0 0 0 0 0 0 0 0 0 0 0 0 0 0 1 3 1 1 1 1 0 0 0 0 0 0 0 0 0 0 0 0 0 0 0 0 0 0 0 0 0 0 0 0 0 0 0 0 0 0 0 0 0 0 0 0 0 0 0 0 0 0 0 0 0 0 0
2 1 0 0 0 0 0 0 0 0 0 0 0 0 0 0 0 0 0 0 0 0 0 0 0 0 0 0 0 0 0 0 0 0 0 0 0 0 0 0 0 0 0 0 0 0 0 0 0 0 0 0 0 0 0 0 0 0 0 0 0 0 0 0 0 0 0 0 0 0 0 0 0 0 0 0 0 0 0 0 0 0 0 0 0
1 1 2 5 2 0 0 0 0 0 0 0 0 0 0 0 0 0 0 0 0 0 0 0 0 0 0 0 0 0 0 0 0 0 0 0 0 0 0 0 0 0 0 0 0 0 0 0 0 0 0 0 0 0 0 0 0 0 0 0 0 0 0 0 0 0 0 0 0 0 0 0 0 0 0 0 0 0 0 0 0 0 0 0 0
0 0 0 0 0 0 0 0 0 0 0 0 0 0 0 0 0 0 0 0 0 0 0 0 0 0 0 0 0 0 0 0 0 0 0 0 0 0 0 0 0 0 0 0 0 0 0 0 0 0 0 0 0 0 0 0 0 0 0 0 0 0 0 0 0 0 0 0 0 0 0 0 0 0 0 0 0 0 0 0 0 0 0 0 0
Wind_Speed
37 37 37 36 36 36 37 37 35 33 33 34 34 35 36 36 36 37 37 37 38 38 38 36 33 31 30 29 28 29 28 27 27 27 27 28 29 29 29 29 28 29 29 28 29 33 36 36 36 34 32 31 36 39 41 42 41 41 40 39 37 33 32 33 27 28 35 38 39 40 39 37 33 34 35 35 31 34 31 27 30 34 36 35 34
37 37 38 36 36 37 38 38 36 35 34 35 36 37 38 38 38 39 38 38 39 38 38 37 35 32 30 30 29 29 29 28 27 28 27 28 28 30 30 29 27 26 27 26 27 30 33 36 36 35 35 33 33 34 36 41 41 40 38 38 38 37 35 33 33 33 32 37 39 40 39 38 34 34 36 35 34 34 30 28 30 31 34 35 34
39 38 37 37 37 38 39 39 37 36 35 35 nan nan nan nan 41 39 38 38 39 39 38 38 36 33 31 31 30 30 30 29 29 29 28 28 27 28 28 28 27 25 23 24 25 26 28 32 34 36 39 38 34 31 33 39 39 39 39 39 40 37 37 39 39 34 30 34 39 40 41 39 33 34 35 36 36 35 31 29 29 30 31 31 33
37 39 38 38 38 39 40 40 38 nan nan nan nan nan nan nan nan nan 40 39 38 39 39 39 38 34 32 31 31 30 31 31 30 30 29 28 27 26 26 27 27 26 24 23 24 24 24 26 31 35 37 36 35 34 36 37 42 45 40 39 37 36 37 38 37 36 35 34 38 40 41 39 36 35 38 37 35 34 33 30 28 28 28 30 31
37 37 37 37 39 40 41 40 39 nan nan nan nan nan nan nan nan nan nan 39 39 39 40 40 39 36 33 32 31 30 30 30 29 29 29 28 27 26 26 27 26 26 25 24 23 23 24 25 27 31 35 36 35 35 37 35 41 44 41 38 35 33 37 37 35 35 34 34 36 39 41 40 38 39 40 38 36 35 34 30 28 27 26 27 29
37 38 38 nan 40 41 41 41 nan nan nan nan nan nan nan nan nan nan nan nan nan nan 40 41 39 35 33 33 32 30 30 29 28 28 27 27 26 26 26 27 26 25 25 25 23 23 25 26 27 28 nan nan 35 37 35 34 37 42 39 38 34 33 31 36 38 36 35 36 36 37 40 40 39 39 41 39 36 35 34 31 28 27 27 27 28
38 38 39 nan 41 42 42 42 nan nan nan nan nan nan nan nan nan nan nan nan nan nan 39 38 37 35 33 33 31 29 29 28 28 28 28 27 26 26 26 25 25 25 26 25 23 22 23 26 27 27 nan nan nan 35 nan 32 38 39 40 38 37 32 30 32 37 36 34 37 38 37 38 40 39 39 40 40 38 35 34 33 28 27 28 27 30
39 40 41 41 42 43 43 nan nan nan nan nan nan nan nan nan nan nan nan nan nan nan 37 37 35 34 33 33 32 30 28 28 28 29 29 27 26 26 26 25 25 25 25 25 24 23 21 nan nan nan nan nan nan nan 34 34 38 43 44 40 38 32 28 32 39 40 36 36 37 39 37 38 40 39 40 42 40 36 34 34 30 29 29 28 30
41 42 43 44 44 44 44 nan nan 43 nan nan nan nan nan nan nan nan nan nan nan 38 36 34 33 33 34 33 31 30 28 28 29 30 29 27 26 26 25 25 24 25 25 24 24 23 nan nan nan nan nan nan nan nan nan nan nan 42 41 41 41 35 34 33 38 40 38 38 38 39 37 37 38 39 39 39 38 36 37 35 34 32 35 32 30
43 44 44 45 46 46 45 45 44 43 nan nan nan nan nan nan nan nan nan nan 40 38 35 32 31 32 33 32 31 30 29 28 33 36 31 28 26 26 25 25 24 25 25 24 nan nan nan nan nan nan nan nan nan nan nan nan nan nan 40 40 38 34 33 37 38 39 36 35 35 36 36 35 35 36 37 37 38 39 38 37 34 33 34 32 33
45 46 46 47 46 46 46 45 44 43 43 nan nan 44 nan nan nan nan 41 41 39 36 33 31 30 32 32 31 29 29 29 29 38 35 34 31 27 26 25 25 24 25 25 22 nan nan nan nan nan nan nan nan 33 37 nan nan nan nan nan nan nan nan 32 31 37 38 37 37 34 35 35 33 32 36 36 36 37 38 39 39 37 36 36 33 29
46 47 47 47 47 46 45 44 43 43 43 43 45 nan nan nan nan nan 40 39 37 35 32 30 31 32 32 30 28 28 27 32 38 34 32 31 29 25 24 25 26 26 24 19 nan nan nan nan nan nan nan nan nan nan 41 nan nan nan nan nan nan nan nan nan 32 34 36 32 32 34 34 32 32 35 35 35 36 38 39 40 39 37 36 33 33
47 47 48 47 47 46 45 44 43 43 44 44 46 47 nan nan nan nan nan 38 35 33 32 31 31 31 30 28 26 26 24 33 36 33 31 30 30 27 25 24 25 26 23 19 18 nan nan nan nan nan nan nan nan nan nan nan 43 44 nan nan nan nan nan nan nan 28 34 33 33 33 32 31 31 34 34 34 37 37 40 41 39 38 37 35 35
47 47 47 47 47 45 44 43 43 43 44 46 47 48 nan nan nan nan 40 38 35 33 32 31 31 30 28 25 24 24 23 30 34 33 31 30 28 27 24 24 26 26 22 17 16 16 14 nan nan nan nan nan nan nan nan nan nan nan nan nan nan nan nan nan nan nan nan 31 31 31 30 30 32 34 34 35 35 37 39 40 39 37 37 36 37
47 47 47 47 47 45 44 44 44 44 46 47 47 46 nan nan nan 41 40 37 34 33 31 31 31 29 26 23 21 22 23 31 34 33 31 30 29 28 25 25 25 26 23 18 15 15 14 13 15 nan nan nan nan nan nan nan nan nan nan nan nan nan 27 26 nan nan nan nan 27 28 31 33 30 32 36 37 35 37 40 40 40 37 38 40 41
47 47 47 48 47 46 45 44 45 46 47 47 46 44 nan nan 40 40 40 37 34 31 31 30 29 27 24 21 20 21 22 34 34 34 31 30 28 26 25 24 23 24 22 18 14 15 17 16 15 18 nan nan nan nan nan nan nan nan nan nan nan nan nan 25 nan nan nan 27 27 25 26 26 nan 34 36 37 39 39 44 42 49 41 39 40 41
47 47 48 48 47 46 45 44 45 46 46 46 44 42 nan nan 40 41 39 36 33 30 29 29 29 27 23 21 20 22 21 29 36 33 32 32 nan 26 25 24 24 25 23 20 15 13 15 15 13 16 19 nan nan nan nan nan nan nan nan nan nan nan nan 27 25 nan nan nan nan nan nan nan nan nan nan nan 37 39 40 44 43 39 36 39 41
47 47 48 48 47 46 45 44 45 45 45 44 43 41 nan nan 39 40 38 35 31 29 28 29 28 26 22 20 21 21 20 26 35 33 31 31 28 25 24 24 24 25 26 25 19 15 13 12 10 11 16 19 22 nan nan nan nan nan nan nan nan nan nan nan 28 27 nan nan nan nan nan nan nan nan nan nan nan nan 39 40 38 34 33 35 38
47 47 48 48 48 46 45 44 44 44 43 42 41 40 39 39 38 38 36 32 30 29 29 28 26 24 21 19 22 24 21 23 34 32 31 30 29 25 24 23 22 24 26 24 21 16 14 12 9 8 11 16 18 24 nan nan nan nan nan nan nan nan nan nan nan 29 29 nan nan nan nan nan nan nan nan nan nan nan 34 36 37 38 34 34 35
47 46 46 47 47 46 44 44 44 42 41 41 40 39 39 38 36 35 33 29 27 28 28 25 22 21 19 18 18 20 21 20 26 33 30 29 28 25 23 23 22 23 25 24 20 15 11 10 10 6 6 11 18 22 26 nan nan nan nan nan nan nan nan nan nan nan nan 22 27 nan nan nan nan 28 30 33 nan 32 31 34 37 38 37 34 33
47 46 47 46 45 45 43 43 42 42 41 40 40 39 38 36 35 33 29 27 26 27 26 22 20 19 18 17 17 19 22 21 26 32 27 25 25 27 24 23 23 23 24 22 19 14 11 9 9 7 5 9 15 nan 24 nan nan nan nan nan nan nan nan nan nan nan nan nan 23 25 nan nan nan 28 29 31 31 30 30 32 34 nan 35 32 31
49 47 46 44 43 43 42 42 41 40 40 40 40 39 38 36 34 31 27 26 26 26 24 21 19 18 17 16 17 19 27 31 22 32 29 nan nan nan 23 23 22 21 22 23 21 17 13 9 8 5 5 9 nan nan 19 24 nan nan nan nan nan nan nan nan nan nan 26 nan 26 29 30 30 28 29 29 33 33 nan 29 31 nan nan 32 32 32
48 46 44 43 42 42 42 41 41 40 40 40 40 38 37 36 33 30 27 26 26 24 21 19 18 17 17 17 17 18 22 27 30 26 nan nan nan nan nan nan nan nan 23 23 22 19 16 12 8 3 6 nan nan nan 12 17 nan nan nan nan nan nan nan nan nan nan nan 25 26 29 30 32 31 30 31 30 nan 29 30 29 31 31 32 34 34
46 44 43 42 41 42 41 40 40 40 39 39 38 37 37 35 32 30 29 27 26 24 21 19 18 17 16 17 17 18 22 20 31 28 24 nan nan nan nan nan nan nan nan 23 23 22 18 15 10 nan nan nan nan 8 9 nan nan nan nan nan nan nan nan nan nan nan nan 30 23 27 27 27 25 29 29 28 27 32 34 32 31 30 30 33 34
46 43 42 42 41 40 40 38 38 39 39 39 37 38 37 35 31 30 29 27 26 24 21 18 18 17 16 17 17 18 20 21 23 30 25 nan nan nan nan nan nan nan nan 21 22 21 19 nan nan nan nan nan nan 6 6 11 18 20 nan nan nan nan nan nan nan nan nan nan nan 22 20 22 22 23 nan 27 28 33 38 36 33 32 32 33 35
45 43 42 41 40 39 39 39 39 39 37 36 37 38 36 34 30 30 29 27 26 24 21 18 17 17 17 17 18 18 19 23 23 21 nan nan nan nan nan nan nan nan nan nan nan nan nan nan nan 16 13 8 4 4 5 6 13 19 22 25 27 nan nan nan nan nan nan nan nan nan 32 24 25 25 25 29 33 34 36 36 35 35 35 37 39
44 43 42 40 39 38 38 37 38 38 37 36 38 38 35 32 29 27 26 25 24 23 21 18 17 17 17 17 18 18 18 23 24 21 nan nan nan nan nan nan nan nan nan 21 20 19 nan nan 19 17 17 14 10 5 2 4 6 13 19 24 24 27 nan nan nan nan nan nan nan nan nan 38 37 27 27 31 33 33 34 37 35 35 38 38 34
43 42 41 39 37 37 37 39 38 34 32 35 36 36 32 31 28 27 26 25 25 23 21 19 17 17 17 17 18 18 19 23 nan nan nan nan nan nan nan nan nan nan nan nan nan nan nan 19 21 20 18 14 12 9 6 5 7 11 17 23 25 25 31 nan nan nan nan nan nan nan nan nan nan 32 25 25 27 30 36 37 33 33 37 40 38
41 39 39 38 37 38 36 37 36 35 32 34 39 37 31 28 28 32 29 nan 25 23 21 20 20 18 17 20 19 19 20 nan nan nan nan nan nan nan nan nan nan nan nan nan nan nan 18 17 17 16 15 13 11 10 7 5 7 11 16 22 23 23 26 34 nan nan nan nan nan nan nan nan nan nan nan 36 33 32 32 31 32 34 35 34 35
39 38 37 36 35 37 37 35 35 33 33 34 42 nan nan 36 30 29 31 nan nan nan nan nan nan nan 19 nan nan nan nan nan nan nan nan nan nan nan nan nan nan nan nan nan nan nan 18 16 16 16 14 14 10 8 6 5 6 9 13 20 25 24 23 28 37 nan nan nan nan nan nan nan nan nan nan nan 41 39 40 38 36 36 32 32 36
37 35 36 34 34 35 34 32 32 34 33 31 39 40 nan nan nan nan nan nan nan nan nan nan nan nan nan nan nan nan nan nan nan nan nan nan nan nan nan nan nan nan nan nan 22 22 19 18 nan nan nan nan nan nan 6 4 4 7 10 16 22 25 23 25 32 39 42 nan nan nan nan nan nan nan nan nan nan 47 46 44 44 43 41 41 nan
36 34 34 36 41 37 32 31 31 32 35 36 40 40 38 nan nan nan nan nan nan nan nan nan nan nan nan nan nan nan nan nan nan nan nan nan nan nan nan nan nan nan nan nan 20 21 nan nan nan nan nan nan nan nan nan nan nan nan nan nan nan 21 23 25 28 32 37 44 47 46 48 nan nan nan nan nan nan nan nan nan nan nan nan nan 43
33 33 35 34 35 35 32 31 32 32 33 36 38 40 38 38 nan nan nan nan nan nan nan nan nan nan nan nan nan nan nan nan nan nan nan nan nan nan nan nan nan nan nan nan nan nan nan nan nan nan nan nan nan nan nan nan nan nan nan nan nan nan nan nan 26 28 30 37 43 47 46 47 43 nan nan nan nan nan nan nan nan nan nan nan nan
33 32 33 33 33 33 32 31 31 33 33 33 35 39 40 39 39 nan nan nan nan nan nan nan nan nan nan nan nan nan nan nan nan nan nan nan nan nan nan nan nan nan nan nan nan nan nan nan nan nan nan nan nan nan nan nan nan nan nan nan nan nan nan nan nan nan nan 33 38 41 nan 44 42 40 39 nan nan nan nan nan nan nan nan nan nan
34 36 36 32 31 32 31 31 31 30 32 35 38 38 39 39 38 38 nan nan nan nan nan nan nan nan nan nan nan nan nan nan nan nan nan nan nan nan nan 21 nan nan nan nan nan nan nan nan nan nan nan nan nan nan nan nan nan nan nan nan nan nan nan nan nan nan nan nan nan nan nan nan nan nan 40 42 nan nan nan nan nan nan nan nan nan
34 33 35 36 33 32 31 31 30 32 34 35 35 37 36 35 36 nan nan 31 29 30 nan nan nan nan nan nan nan nan nan nan nan nan nan nan nan nan nan nan nan nan nan nan nan nan nan nan nan nan nan nan nan nan nan nan nan nan nan nan nan nan nan nan 7 10 16 24 nan nan nan nan nan nan 38 38 nan nan 46 49 nan nan nan nan nan
33 33 33 34 33 32 32 32 33 34 36 34 33 34 34 32 32 34 34 33 nan nan nan nan nan nan nan nan nan nan nan nan nan nan nan nan nan nan nan nan nan nan nan nan nan nan nan nan nan nan nan nan nan nan nan nan nan nan nan nan nan nan nan nan nan nan nan 13 19 24 nan nan nan nan nan nan nan nan nan nan 45 nan nan nan nan
31 32 33 33 33 34 33 33 37 37 35 34 34 33 33 35 nan nan nan nan nan nan nan nan nan nan nan nan nan nan nan nan nan nan nan nan nan nan nan nan nan nan nan nan nan nan nan nan nan nan nan nan nan nan nan nan nan nan nan nan nan nan nan nan nan nan nan nan nan nan nan nan nan nan nan nan nan nan 36 nan 38 39 40 41 44
33 39 nan nan 30 32 34 35 36 35 35 33 33 32 nan nan nan nan nan nan nan nan nan nan nan nan nan nan nan nan nan nan nan nan nan nan nan nan nan nan nan nan nan nan nan nan nan nan nan nan nan nan nan nan nan nan nan nan nan nan nan nan nan nan nan nan nan nan nan nan nan nan nan nan nan nan nan nan nan 32 32 34 35 36 37
33 34 37 nan 33 35 34 34 34 34 33 33 33 nan nan nan nan nan nan nan nan nan nan nan nan nan nan nan nan nan nan nan nan nan nan nan nan nan nan nan nan nan nan nan nan nan nan nan nan nan nan nan nan nan nan nan nan nan nan nan nan nan nan nan nan nan nan nan nan nan nan nan nan nan nan nan nan nan nan nan nan 26 29 30 33
34 36 38 38 38 37 nan 36 35 35 35 35 33 nan nan nan nan nan nan nan nan nan nan nan nan nan nan nan nan nan nan nan nan nan nan nan nan nan nan nan nan nan nan nan nan nan nan nan nan nan nan nan nan nan nan nan nan nan nan nan nan nan nan nan nan nan nan nan nan nan nan nan nan nan nan nan nan nan nan nan nan nan nan nan nan
35 36 nan nan nan nan nan nan nan nan nan nan nan nan nan nan nan nan nan nan nan nan nan nan nan nan nan nan nan nan nan nan nan nan nan nan nan nan nan nan nan nan nan nan nan nan nan nan nan nan nan nan nan nan nan nan nan nan nan nan nan nan nan nan nan nan nan nan nan nan nan nan nan nan nan nan nan nan nan nan nan nan nan nan nan
33 nan nan nan nan nan nan nan nan nan nan nan nan nan nan nan nan nan nan nan nan nan nan nan nan nan nan nan nan nan nan nan nan nan nan nan nan nan nan nan nan nan nan nan nan nan nan nan nan nan nan nan nan nan nan nan nan nan nan nan nan nan nan nan nan nan nan nan nan nan nan nan nan nan nan nan nan nan nan nan nan nan nan nan nan
nan nan nan nan nan nan nan nan nan nan nan nan nan nan nan nan nan nan nan nan nan nan nan nan nan nan nan nan nan nan nan nan nan nan nan nan nan nan nan nan nan nan nan nan nan nan nan nan nan nan nan nan nan nan nan nan nan nan nan nan nan nan nan nan nan nan nan nan nan nan nan nan nan nan nan nan nan nan nan nan nan nan nan nan nan
nan nan nan nan nan nan nan nan nan nan nan nan nan nan nan nan nan nan nan nan nan nan nan nan nan nan nan nan nan nan nan nan nan nan nan nan nan nan nan nan nan nan nan nan nan nan nan nan nan nan nan nan nan nan nan nan nan nan nan nan nan nan nan nan nan nan nan nan nan nan nan nan nan nan nan nan nan nan nan nan nan nan nan nan nan
nan nan nan nan nan nan nan nan nan nan nan nan nan nan nan nan nan nan nan nan nan nan nan nan nan nan nan nan nan nan nan nan nan nan nan nan nan nan nan nan nan nan nan nan nan nan nan nan nan nan nan nan nan nan nan nan nan nan nan nan nan nan nan nan nan nan nan nan nan nan nan nan nan nan nan nan nan nan nan nan nan nan nan nan nan
nan nan nan nan nan nan nan nan nan nan nan nan nan nan nan nan nan nan nan nan nan nan nan nan nan nan nan nan nan nan nan nan nan nan nan nan nan nan nan nan nan nan nan nan nan nan nan nan nan nan nan nan nan nan nan nan nan nan nan nan nan nan nan nan nan nan nan nan nan nan nan nan nan nan nan nan nan nan nan nan nan nan nan nan nan
nan nan nan nan nan nan nan nan nan nan nan nan nan nan nan nan nan nan nan nan nan nan nan nan nan nan nan nan nan nan nan nan nan nan nan nan nan nan nan nan nan nan nan nan nan nan nan nan nan nan nan nan nan nan nan nan nan nan nan nan nan nan nan nan nan nan nan nan nan nan nan nan nan nan nan nan nan nan nan nan nan nan nan nan nan
nan nan nan nan nan nan nan nan nan nan nan nan nan nan nan nan nan nan nan nan nan nan nan nan nan nan nan nan nan nan nan nan nan nan nan nan nan nan nan nan nan nan nan nan nan nan nan nan nan nan nan nan nan nan nan nan nan nan nan nan nan nan nan nan nan nan nan nan nan nan nan nan nan nan nan nan nan nan nan nan nan nan nan nan nan
nan nan nan nan nan nan nan nan nan nan nan nan nan nan nan nan nan nan nan nan nan nan nan nan nan nan nan nan nan nan nan nan nan nan nan nan nan nan nan nan nan nan nan nan nan nan nan nan nan nan nan nan nan nan nan nan nan nan nan nan nan nan nan nan nan nan nan nan nan nan nan nan nan nan nan nan nan nan nan nan nan nan nan nan nan
nan nan nan nan nan nan nan nan nan nan nan nan nan nan nan nan nan nan nan nan nan nan nan nan nan nan nan nan nan nan nan nan nan nan nan nan nan nan nan nan nan nan nan nan nan nan nan nan nan nan nan nan nan nan nan nan nan nan nan nan nan nan nan nan nan nan nan nan nan nan nan nan nan nan nan nan nan nan nan nan nan nan nan nan nan
Wind_Direction
320 320 319 318 318 318 319 318 318 317 319 319 321 322 322 322 321 321 321 322 321 320 320 321 321 318 312 306 299 293 291 292 297 301 302 300 295 292 290 287 281 276 269 262 258 253 250 249 250 250 248 241 244 243 243 245 246 248 247 245 247 249 254 256 250 239 238 242 241 241 245 247 246 245 242 243 244 251 253 243 243 241 239 238 239
318 319 319 318 318 318 318 318 318 317 319 320 322 323 323 323 322 322 323 322 321 320 318 318 318 318 314 307 300 294 291 291 294 298 301 300 296 292 289 286 281 275 267 261 257 257 251 247 244 241 243 243 240 244 243 245 243 242 245 247 247 250 250 251 253 248 239 241 243 244 244 249 245 246 242 239 241 246 248 244 242 241 240 239 238
316 318 319 319 318 318 318 319 318 319 320 321 nan nan nan nan 322 323 322 321 320 319 317 317 317 318 316 310 302 297 293 292 294 297 299 300 297 291 288 284 280 275 270 261 256 254 247 242 238 238 244 245 244 242 241 244 242 237 236 242 243 246 250 251 251 250 245 240 242 243 245 247 246 243 244 240 239 244 245 243 242 242 243 242 240
317 319 320 320 319 319 319 320 320 nan nan nan nan nan nan nan nan nan 322 321 319 318 317 316 317 318 316 311 305 300 297 296 296 297 297 297 297 293 289 285 278 271 267 264 258 253 246 240 237 234 233 236 239 242 242 244 244 244 241 238 239 243 247 249 250 248 247 239 240 243 245 244 244 243 244 242 239 242 244 241 241 243 244 243 240
317 319 320 321 320 319 320 321 321 nan nan nan nan nan nan nan nan nan nan 321 319 318 317 315 316 318 315 310 305 303 301 300 300 299 299 298 299 296 292 289 282 270 265 264 261 255 247 239 233 233 232 231 234 238 246 243 241 241 242 240 238 243 245 245 249 249 249 245 239 241 244 243 242 243 248 246 242 239 241 241 239 241 244 246 243
318 319 320 nan 318 321 322 322 nan nan nan nan nan nan nan nan nan nan nan nan nan nan 316 315 316 318 316 311 307 306 306 306 305 304 302 301 300 299 297 294 290 280 270 267 265 260 250 239 233 232 nan nan 232 233 236 240 237 238 241 240 241 248 250 250 250 247 248 247 242 240 244 243 243 243 248 250 244 238 238 239 236 237 242 246 247
317 319 320 nan 319 321 323 323 nan nan nan nan nan nan nan nan nan nan nan nan nan nan 314 314 315 315 314 311 309 309 310 310 309 308 307 305 303 303 302 298 294 289 282 277 276 271 257 243 234 232 nan nan nan 229 nan 230 234 234 238 237 243 249 251 249 250 250 249 248 245 243 243 243 242 243 247 250 247 238 234 235 236 240 242 246 250
318 320 320 320 322 323 324 nan nan nan nan nan nan nan nan nan nan nan nan nan nan nan 314 314 313 312 310 310 309 309 310 311 311 310 308 307 306 306 304 301 297 292 284 280 277 272 261 nan nan nan nan nan nan nan 222 227 230 231 233 234 240 249 252 248 247 244 245 245 244 242 244 242 242 242 244 250 248 242 238 235 235 241 246 247 251
319 320 320 322 323 323 323 nan nan 321 nan nan nan nan nan nan nan nan nan nan nan 318 316 313 312 311 311 312 311 308 307 307 308 307 307 307 307 307 306 303 300 296 288 278 271 270 nan nan nan nan nan nan nan nan nan nan nan 222 230 234 231 236 248 247 243 243 241 243 243 243 241 242 241 242 247 249 250 247 243 238 234 238 243 237 246
319 320 321 322 322 322 322 321 321 321 nan nan nan nan nan nan nan nan nan nan 320 317 315 314 312 311 311 312 310 306 304 305 304 305 308 307 308 311 310 307 305 300 293 280 nan nan nan nan nan nan nan nan nan nan nan nan nan nan 218 221 223 232 247 244 239 238 240 239 241 243 242 241 242 243 243 246 248 247 244 242 239 237 239 240 242
319 320 321 321 321 321 320 320 320 321 320 nan nan 321 nan nan nan nan 322 320 319 317 318 316 313 311 312 311 309 305 301 303 307 313 314 315 316 316 314 312 311 307 298 282 nan nan nan nan nan nan nan nan 220 215 nan nan nan nan nan nan nan nan 234 243 240 237 236 240 242 244 240 238 238 240 241 243 246 247 246 245 242 240 240 239 241
319 319 320 320 320 320 319 319 320 320 319 319 321 nan nan nan nan nan 320 319 319 317 316 316 315 315 314 313 309 302 300 302 312 315 316 318 322 320 318 318 319 315 304 283 nan nan nan nan nan nan nan nan nan nan 221 nan nan nan nan nan nan nan nan nan 235 238 236 233 240 242 239 236 236 238 239 242 244 247 247 247 245 242 240 238 238
318 319 319 319 319 319 319 318 319 319 320 320 322 322 nan nan nan nan nan 318 317 318 317 318 317 316 315 313 308 301 297 302 316 317 319 321 324 328 324 326 327 322 312 295 285 nan nan nan nan nan nan nan nan nan nan nan 213 213 nan nan nan nan nan nan nan 231 233 240 241 242 239 234 235 237 239 240 243 244 248 249 247 243 238 236 235
317 318 319 319 318 318 318 318 319 321 321 322 322 322 nan nan nan nan 318 318 317 317 317 316 317 316 314 312 308 305 302 304 317 319 322 324 327 330 329 331 332 329 322 305 297 296 281 nan nan nan nan nan nan nan nan nan nan nan nan nan nan nan nan nan nan nan nan 236 239 240 237 235 235 235 237 240 241 244 246 248 249 244 239 235 235
316 318 318 318 318 318 319 320 321 322 323 323 322 322 nan nan nan 318 316 314 315 315 316 316 316 316 314 311 308 303 304 307 319 322 324 327 329 331 330 332 333 332 324 311 308 309 293 264 236 nan nan nan nan nan nan nan nan nan nan nan nan nan 231 240 nan nan nan nan 241 241 238 236 233 233 235 238 243 243 244 246 247 243 238 234 233
318 319 319 318 319 319 320 321 322 322 323 323 322 322 nan nan 319 318 316 314 313 315 315 314 313 311 310 309 308 308 307 313 322 325 325 326 327 327 328 329 331 332 325 312 311 320 313 291 257 230 nan nan nan nan nan nan nan nan nan nan nan nan nan 233 nan nan nan 244 243 239 238 236 nan 231 233 236 241 243 240 239 237 234 239 238 235
320 321 320 319 320 319 320 321 321 322 323 323 323 322 nan nan 320 318 316 313 313 312 311 310 311 310 307 309 312 312 311 315 323 325 326 325 nan 326 326 328 332 334 330 317 314 327 326 312 277 248 226 nan nan nan nan nan nan nan nan nan nan nan nan 228 241 nan nan nan nan nan nan nan nan nan nan nan 229 237 244 243 244 243 238 238 234
321 321 320 319 319 319 320 321 322 323 323 324 323 322 nan nan 319 318 315 312 313 310 308 309 311 307 307 311 310 309 312 316 323 325 329 329 328 324 325 329 331 334 333 328 322 326 334 343 317 263 244 234 216 nan nan nan nan nan nan nan nan nan nan nan 228 240 nan nan nan nan nan nan nan nan nan nan nan nan 239 240 241 243 241 240 235
322 321 319 318 318 319 320 321 322 324 324 324 323 322 321 320 319 317 316 315 315 315 310 308 307 307 305 302 311 319 318 315 320 328 331 332 330 325 325 326 328 329 332 332 326 325 328 324 326 297 260 246 221 212 nan nan nan nan nan nan nan nan nan nan nan 229 240 nan nan nan nan nan nan nan nan nan nan nan 240 238 237 234 239 243 237
320 319 317 317 318 318 319 320 321 323 324 324 323 322 321 322 320 316 315 316 314 310 309 306 303 304 303 304 306 310 315 318 314 323 327 332 333 327 325 327 328 325 329 332 326 328 325 314 309 299 257 233 222 210 209 nan nan nan nan nan nan nan nan nan nan nan nan 245 250 nan nan nan nan 235 233 236 nan 245 245 240 237 237 236 238 239
317 317 317 317 317 318 318 320 322 324 324 324 323 323 322 322 319 317 318 316 313 313 310 306 303 303 303 301 308 309 309 315 309 310 316 323 328 331 326 327 326 324 328 332 332 331 328 313 298 287 248 211 209 nan 200 nan nan nan nan nan nan nan nan nan nan nan nan nan 250 252 nan nan nan 235 234 235 239 243 246 245 241 nan 239 242 243
316 317 317 316 317 317 318 320 321 321 322 324 324 324 324 323 320 319 317 316 317 316 311 306 304 306 305 303 305 309 310 315 315 308 311 nan nan nan 326 324 321 326 331 335 335 332 330 326 306 278 223 198 nan nan 190 196 nan nan nan nan nan nan nan nan nan nan 222 nan 245 249 248 245 242 239 239 240 244 nan 247 248 nan nan 243 241 242
317 317 315 315 316 317 318 321 320 319 321 324 326 326 325 323 320 317 315 316 317 316 311 307 307 307 304 302 300 303 306 314 317 315 nan nan nan nan nan nan nan nan 334 336 336 335 335 336 335 295 214 nan nan nan 176 182 nan nan nan nan nan nan nan nan nan nan nan 230 240 245 249 248 245 245 243 241 nan 247 247 248 246 245 243 241 238
315 315 314 314 316 318 319 319 319 319 321 323 326 327 326 322 318 315 313 313 314 314 310 306 306 304 299 295 298 300 304 308 313 313 311 nan nan nan nan nan nan nan nan 338 339 339 340 341 341 nan nan nan nan 161 170 nan nan nan nan nan nan nan nan nan nan nan nan 221 241 244 246 247 246 242 244 243 243 246 246 245 243 242 242 242 240
315 314 313 314 316 318 318 317 317 318 320 323 325 325 325 322 318 315 314 313 313 310 305 303 303 300 296 294 293 295 296 302 306 311 309 nan nan nan nan nan nan nan nan 338 341 341 344 nan nan nan nan nan nan 144 185 192 185 186 nan nan nan nan nan nan nan nan nan nan nan 236 242 243 241 238 nan 241 240 240 240 237 236 236 240 243 242
313 312 312 314 317 317 317 317 317 317 320 321 324 325 324 321 319 315 314 315 314 309 302 299 299 297 295 292 290 292 295 299 299 298 nan nan nan nan nan nan nan nan nan nan nan nan nan nan nan 13 4 358 335 255 235 203 182 184 196 212 227 nan nan nan nan nan nan nan nan nan 220 225 241 236 239 242 243 240 239 237 234 236 240 242 242
310 309 312 314 315 315 314 314 313 316 319 321 322 324 322 320 318 315 315 314 310 302 295 294 295 294 291 291 291 290 294 293 292 293 nan nan nan nan nan nan nan nan nan 333 340 344 nan nan 355 2 359 10 12 349 288 227 209 207 209 211 218 224 nan nan nan nan nan nan nan nan nan 218 216 228 240 240 241 239 237 234 234 236 241 242 239
309 310 312 313 312 312 311 310 312 313 316 318 321 323 322 318 317 315 311 307 306 299 292 288 289 291 290 290 289 292 293 292 nan nan nan nan nan nan nan nan nan nan nan nan nan nan nan 358 358 350 341 338 331 315 289 250 238 231 214 203 203 206 213 nan nan nan nan nan nan nan nan nan nan 208 224 237 239 239 236 234 235 238 240 238 235
308 310 309 309 309 307 308 309 312 314 316 317 303 295 295 295 295 291 283 nan 286 287 287 289 289 286 286 283 287 291 291 nan nan nan nan nan nan nan nan nan nan nan nan nan nan nan 345 337 325 333 330 330 332 326 313 269 242 240 228 216 209 204 204 211 nan nan nan nan nan nan nan nan nan nan nan 218 224 235 237 235 235 238 241 239 233
308 308 308 308 309 309 309 310 310 310 310 314 303 nan nan 277 278 290 291 nan nan nan nan nan nan nan 283 nan nan nan nan nan nan nan nan nan nan nan nan nan nan nan nan nan nan nan 332 318 320 318 327 328 332 327 318 299 255 238 237 230 227 220 207 203 204 nan nan nan nan nan nan nan nan nan nan nan 217 221 223 229 231 237 239 239 235
305 305 305 307 304 303 303 304 306 309 308 308 307 305 nan nan nan nan nan nan nan nan nan nan nan nan nan nan nan nan nan nan nan nan nan nan nan nan nan nan nan nan nan nan 325 321 306 305 nan nan nan nan nan nan 328 303 252 236 230 230 233 228 217 203 196 199 206 nan nan nan nan nan nan nan nan nan nan 215 217 217 220 222 224 226 nan
302 301 301 302 296 302 305 305 305 307 308 308 303 306 304 nan nan nan nan nan nan nan nan nan nan nan nan nan nan nan nan nan nan nan nan nan nan nan nan nan nan nan nan nan 315 297 nan nan nan nan nan nan nan nan nan nan nan nan nan nan nan 224 220 209 194 196 198 203 207 211 213 nan nan nan nan nan nan nan nan nan nan nan nan nan 226
299 298 298 298 299 301 304 305 306 307 308 310 310 307 305 301 nan nan nan nan nan nan nan nan nan nan nan nan nan nan nan nan nan nan nan nan nan nan nan nan nan nan nan nan nan nan nan nan nan nan nan nan nan nan nan nan nan nan nan nan nan nan nan nan 200 204 199 200 203 209 215 219 221 nan nan nan nan nan nan nan nan nan nan nan nan
294 293 292 294 297 299 301 303 304 304 305 306 307 306 306 302 300 nan nan nan nan nan nan nan nan nan nan nan nan nan nan nan nan nan nan nan nan nan nan nan nan nan nan nan nan nan nan nan nan nan nan nan nan nan nan nan nan nan nan nan nan nan nan nan nan nan nan 203 202 205 nan 218 222 222 223 nan nan nan nan nan nan nan nan nan nan
292 293 294 292 296 299 300 299 300 301 301 301 301 305 303 304 302 297 nan nan nan nan nan nan nan nan nan nan nan nan nan nan nan nan nan nan nan nan nan 302 nan nan nan nan nan nan nan nan nan nan nan nan nan nan nan nan nan nan nan nan nan nan nan nan nan nan nan nan nan nan nan nan nan nan 212 215 nan nan nan nan nan nan nan nan nan
289 289 293 297 297 296 295 295 294 295 296 298 301 304 306 301 298 nan nan 285 288 290 nan nan nan nan nan nan nan nan nan nan nan nan nan nan nan nan nan nan nan nan nan nan nan nan nan nan nan nan nan nan nan nan nan nan nan nan nan nan nan nan nan nan 230 222 218 221 nan nan nan nan nan nan 208 210 nan nan 211 213 nan nan nan nan nan
285 287 290 291 291 291 291 292 295 295 294 294 296 296 296 297 295 286 279 274 nan nan nan nan nan nan nan nan nan nan nan nan nan nan nan nan nan nan nan nan nan nan nan nan nan nan nan nan nan nan nan nan nan nan nan nan nan nan nan nan nan nan nan nan nan nan nan 229 225 222 nan nan nan nan nan nan nan nan nan nan 209 nan nan nan nan
284 287 289 287 291 291 291 294 293 293 295 292 289 290 290 288 nan nan nan nan nan nan nan nan nan nan nan nan nan nan nan nan nan nan nan nan nan nan nan nan nan nan nan nan nan nan nan nan nan nan nan nan nan nan nan nan nan nan nan nan nan nan nan nan nan nan nan nan nan nan nan nan nan nan nan nan nan nan 218 nan 215 215 218 218 220
289 286 nan nan 286 289 291 294 296 297 293 291 291 293 nan nan nan nan nan nan nan nan nan nan nan nan nan nan nan nan nan nan nan nan nan nan nan nan nan nan nan nan nan nan nan nan nan nan nan nan nan nan nan nan nan nan nan nan nan nan nan nan nan nan nan nan nan nan nan nan nan nan nan nan nan nan nan nan nan 222 224 224 223 224 227
288 289 288 nan 291 288 290 293 295 294 290 288 287 nan nan nan nan nan nan nan nan nan nan nan nan nan nan nan nan nan nan nan nan nan nan nan nan nan nan nan nan nan nan nan nan nan nan nan nan nan nan nan nan nan nan nan nan nan nan nan nan nan nan nan nan nan nan nan nan nan nan nan nan nan nan nan nan nan nan nan nan 228 229 226 228
287 286 286 284 282 285 nan 287 287 286 284 282 285 nan nan nan nan nan nan nan nan nan nan nan nan nan nan nan nan nan nan nan nan nan nan nan nan nan nan nan nan nan nan nan nan nan nan nan nan nan nan nan nan nan nan nan nan nan nan nan nan nan nan nan nan nan nan nan nan nan nan nan nan nan nan nan nan nan nan nan nan nan nan nan nan
287 288 nan nan nan nan nan nan nan nan nan nan nan nan nan nan nan nan nan nan nan nan nan nan nan nan nan nan nan nan nan nan nan nan nan nan nan nan nan nan nan nan nan nan nan nan nan nan nan nan nan nan nan nan nan nan nan nan nan nan nan nan nan nan nan nan nan nan nan nan nan nan nan nan nan nan nan nan nan nan nan nan nan nan nan
287 nan nan nan nan nan nan nan nan nan nan nan nan nan nan nan nan nan nan nan nan nan nan nan nan nan nan nan nan nan nan nan nan nan nan nan nan nan nan nan nan nan nan nan nan nan nan nan nan nan nan nan nan nan nan nan nan nan nan nan nan nan nan nan nan nan nan nan nan nan nan nan nan nan nan nan nan nan nan nan nan nan nan nan nan
nan nan nan nan nan nan nan nan nan nan nan nan nan nan nan nan nan nan nan nan nan nan nan nan nan nan nan nan nan nan nan nan nan nan nan nan nan nan nan nan nan nan nan nan nan nan nan nan nan nan nan nan nan nan nan nan nan nan nan nan nan nan nan nan nan nan nan nan nan nan nan nan nan nan nan nan nan nan nan nan nan nan nan nan nan
nan nan nan nan nan nan nan nan nan nan nan nan nan nan nan nan nan nan nan nan nan nan nan nan nan nan nan nan nan nan nan nan nan nan nan nan nan nan nan nan nan nan nan nan nan nan nan nan nan nan nan nan nan nan nan nan nan nan nan nan nan nan nan nan nan nan nan nan nan nan nan nan nan nan nan nan nan nan nan nan nan nan nan nan nan
nan nan nan nan nan nan nan nan nan nan nan nan nan nan nan nan nan nan nan nan nan nan nan nan nan nan nan nan nan nan nan nan nan nan nan nan nan nan nan nan nan nan nan nan nan nan nan nan nan nan nan nan nan nan nan nan nan nan nan nan nan nan nan nan nan nan nan nan nan nan nan nan nan nan nan nan nan nan nan nan nan nan nan nan nan
nan nan nan nan nan nan nan nan nan nan nan nan nan nan nan nan nan nan nan nan nan nan nan nan nan nan nan nan nan nan nan nan nan nan nan nan nan nan nan nan nan nan nan nan nan nan nan nan nan nan nan nan nan nan nan nan nan nan nan nan nan nan nan nan nan nan nan nan nan nan nan nan nan nan nan nan nan nan nan nan nan nan nan nan nan
nan nan nan nan nan nan nan nan nan nan nan nan nan nan nan nan nan nan nan nan nan nan nan nan nan nan nan nan nan nan nan nan nan nan nan nan nan nan nan nan nan nan nan nan nan nan nan nan nan nan nan nan nan nan nan nan nan nan nan nan nan nan nan nan nan nan nan nan nan nan nan nan nan nan nan nan nan nan nan nan nan nan nan nan nan
nan nan nan nan nan nan nan nan nan nan nan nan nan nan nan nan nan nan nan nan nan nan nan nan nan nan nan nan nan nan nan nan nan nan nan nan nan nan nan nan nan nan nan nan nan nan nan nan nan nan nan nan nan nan nan nan nan nan nan nan nan nan nan nan nan nan nan nan nan nan nan nan nan nan nan nan nan nan nan nan nan nan nan nan nan
nan nan nan nan nan nan nan nan nan nan nan nan nan nan nan nan nan nan nan nan nan nan nan nan nan nan nan nan nan nan nan nan nan nan nan nan nan nan nan nan nan nan nan nan nan nan nan nan nan nan nan nan nan nan nan nan nan nan nan nan nan nan nan nan nan nan nan nan nan nan nan nan nan nan nan nan nan nan nan nan nan nan nan nan nan
nan nan nan nan nan nan nan nan nan nan nan nan nan nan nan nan nan nan nan nan nan nan nan nan nan nan nan nan nan nan nan nan nan nan nan nan nan nan nan nan nan nan nan nan nan nan nan nan nan nan nan nan nan nan nan nan nan nan nan nan nan nan nan nan nan nan nan nan nan nan nan nan nan nan nan nan nan nan nan nan nan nan nan nan nan